Pine Bluff, AR

8:03 AM CDT on May 28, 2017 (GMT -0500)
Grider

Weather History for KPBF - August, 2013

Change the Weather History Date:

Tuesday, August 6, 2013

  Actual Average Record
Temperature  
Mean Temperature 86 °F 82 °F  
Max Temperature 97 °F 92 °F 108 °F (1926)
Min Temperature 74 °F 72 °F 57 °F (1884)
Degree Days  
Heating Degree Days 0 0  
Month to date heating degree days 0 0  
Since 1 June heating degree days 0 0  
Since 1 July heating degree days 0 0  
Cooling Degree Days 21 17  
Month to date cooling degree days 110 102  
Year to date cooling degree days 1267 1359  
Since 1 June cooling degree days 1000 1052  
Growing Degree Days 35 (Base 50)    
Moisture  
Dew Point 73 °F    
Average Humidity 68    
Maximum Humidity 94    
Minimum Humidity 42    
Precipitation  
Precipitation 0.00 in 0.10 in 2.85 in (1993)
Month to date precipitation 0.00 0.61  
Year to date precipitation 30.67 31.32  
Snow  
Snow 0.00 in 0.00 in - ()
Month to date snowfall 0.0 0.0  
Since 1 June snowfall 0.0 0.0  
Since 1 July snowfall 0.0 0.0  
Snow Depth 0.00 in    
Sea Level Pressure  
Sea Level Pressure 29.89 in    
Wind  
Wind Speed 6 mph (SSW)    
Max Wind Speed 13 mph    
Max Gust Speed 18 mph    
Visibility 10 miles    
Events      
T = Trace of Precipitation, MM = Missing Value Source: NWS Daily Summary

Daily Weather History Graph

Daily Weather History Graph

Search for Another Location

Airport or City:

Trip Planner

Search our weather history database for the weather conditions in past years. The results will help you decide how hot, cold, wet, or windy it might be!

Date:

Astronomy

Aug. 06, 2013 Rise Set
Actual Time 6:22 AM CDT 8:03 PM CDT
Civil Twilight 5:55 AM CDT 8:31 PM CDT
Nautical Twilight 5:22 AM CDT 9:03 PM CDT
Astronomical Twilight 4:48 AM CDT 9:37 PM CDT
Moon 6:11 AM CDT (8/6) 7:43 PM CDT (8/6)
Length of Visible Light 14h 35m
Length of Day
13h 41m
Waning Crescent, 0% of the Moon is Illuminated
Aug 6
Waning Crescent
Aug 6
New
Aug 14
First Quarter
Aug 20
Full
Aug 28
Last Quarter

Hourly Weather History & Observations

Time (CDT) Temp. Heat Index Dew Point Humidity Pressure Visibility Wind Dir Wind Speed Gust Speed Precip Events Conditions
12:53 AM 77.0 °F - 73.0 °F 88% 29.91 in 10.0 mi Calm Calm - N/A   Clear
1:53 AM 75.9 °F - 73.0 °F 91% 29.90 in 10.0 mi SSE 3.5 mph - N/A   Partly Cloudy
2:53 AM 75.9 °F - 72.0 °F 87% 29.88 in 10.0 mi Calm Calm - N/A   Clear
3:53 AM 75.9 °F - 72.0 °F 87% 29.87 in 10.0 mi Calm Calm - N/A   Clear
4:53 AM 75.0 °F - 72.0 °F 90% 29.87 in 10.0 mi Calm Calm - N/A   Clear
5:53 AM 73.9 °F - 72.0 °F 93% 29.90 in 10.0 mi Calm Calm - N/A   Clear
6:53 AM 75.9 °F - 73.0 °F 91% 29.91 in 10.0 mi SSW 5.8 mph - N/A   Clear
7:53 AM 80.1 °F 84.5 °F 73.9 °F 81% 29.91 in 10.0 mi SSW 6.9 mph - N/A   Clear
8:53 AM 84.9 °F 91.4 °F 73.0 °F 67% 29.92 in 10.0 mi SW 11.5 mph - N/A   Clear
9:53 AM 88.0 °F 96.5 °F 73.9 °F 63% 29.93 in 10.0 mi WSW 8.1 mph - N/A   Clear
10:53 AM 88.0 °F 94.7 °F 72.0 °F 59% 29.94 in 10.0 mi WSW 10.4 mph - N/A   Clear
11:53 AM 91.9 °F 100.7 °F 73.0 °F 54% 29.93 in 10.0 mi SW 9.2 mph - N/A   Clear
12:53 PM 93.9 °F 102.1 °F 72.0 °F 49% 29.93 in 10.0 mi West 11.5 mph 16.1 mph N/A   Clear
1:53 PM 93.9 °F 100.8 °F 71.1 °F 47% 29.92 in 10.0 mi WNW 5.8 mph - N/A   Clear
2:53 PM 93.9 °F 103.4 °F 73.0 °F 51% 29.90 in 10.0 mi SSW 5.8 mph - N/A   Clear
3:53 PM 95.0 °F 102.5 °F 71.1 °F 46% 29.88 in 10.0 mi SSW 5.8 mph - N/A   Partly Cloudy
4:53 PM 97.0 °F 103.5 °F 70.0 °F 41% 29.86 in 10.0 mi SSW 10.4 mph - N/A   Clear
5:53 PM 96.1 °F 103.5 °F 71.1 °F 44% 29.86 in 10.0 mi South 10.4 mph - N/A   Partly Cloudy
6:53 PM 93.9 °F 102.1 °F 72.0 °F 49% 29.86 in 10.0 mi South 6.9 mph - N/A   Clear
7:53 PM 89.1 °F 98.0 °F 73.9 °F 61% 29.86 in 10.0 mi SSE 4.6 mph - N/A   Clear
8:53 PM 84.9 °F 93.3 °F 75.0 °F 72% 29.86 in 10.0 mi SSW 4.6 mph - N/A   Clear
9:53 PM 84.0 °F 91.2 °F 73.9 °F 72% 29.88 in 10.0 mi South 4.6 mph - N/A   Clear
10:53 PM 82.0 °F 87.9 °F 73.9 °F 76% 29.88 in 10.0 mi South 5.8 mph - N/A   Clear
11:53 PM 81.0 °F 85.8 °F 73.0 °F 77% 29.89 in 10.0 mi South 5.8 mph - N/A   Clear